Ludington, MI

12:27 AM EST on December 18, 2017 (GMT -0500)
Mason County

Weather History for KLDM - November, 2012

Change the Weather History Date:

Wednesday, November 7, 2012

  Actual Average Record
Temperature  
Mean Temperature 37 °F -  
Max Temperature 46 °F 47 °F 65 °F (1975)
Min Temperature 28 °F 31 °F 19 °F (1991)
Degree Days  
Heating Degree Days 28    
Moisture  
Dew Point 26 °F    
Average Humidity 67    
Maximum Humidity 84    
Minimum Humidity 44    
Precipitation  
Precipitation 0.00 in - - ()
Sea Level Pressure  
Sea Level Pressure 30.07 in    
Wind  
Wind Speed 6 mph (ESE)    
Max Wind Speed 10 mph    
Max Gust Speed 16 mph    
Visibility 10 miles    
Events      
Averages and records for this station are not official NWS values.
T = Trace of Precipitation, MM = Missing Value Source: NWS Daily Summary

Daily Weather History Graph

Daily Weather History Graph

Search for Another Location

Airport or City:

Trip Planner

Search our weather history database for the weather conditions in past years. The results will help you decide how hot, cold, wet, or windy it might be!

Date:

Astronomy

Nov. 07, 2012 Rise Set
Actual Time 7:30 AM EST 5:27 PM EST
Civil Twilight 7:00 AM EST 5:58 PM EST
Nautical Twilight 6:25 AM EST 6:32 PM EST
Astronomical Twilight 5:51 AM EST 7:06 PM EST
Moon 12:09 AM EST (11/7) 1:49 PM EST (11/7)
Length of Visible Light 10h 57m
Length of Day
9h 56m
Last Quarter, 43% of the Moon is Illuminated
Nov 7
Last Quarter
Nov 13
New
Nov 20
First Quarter
Nov 28
Full
Dec 6
Last Quarter

Hourly Weather History & Observations

Time (EST) Temp. Windchill Dew Point Humidity Pressure Visibility Wind Dir Wind Speed Gust Speed Precip Events Conditions
12:15 AM 35.8 °F 30.9 °F 25.5 °F 66% 29.95 in 10.0 mi ESE 5.8 mph - N/A   Overcast
12:35 AM 36.1 °F 29.9 °F 25.5 °F 65% 29.95 in 10.0 mi ESE 8.1 mph - N/A   Overcast
12:55 AM 36.1 °F 29.3 °F 25.5 °F 65% 29.96 in 10.0 mi ESE 9.2 mph - N/A   Overcast
1:15 AM 36.1 °F 29.9 °F 25.3 °F 65% 29.96 in 10.0 mi ESE 8.1 mph - N/A   Overcast
1:35 AM 35.6 °F 28.6 °F 25.3 °F 66% 29.96 in 10.0 mi ESE 9.2 mph - N/A   Overcast
1:55 AM 35.6 °F 29.2 °F 25.3 °F 66% 29.96 in 10.0 mi ESE 8.1 mph - N/A   Overcast
2:15 AM 35.6 °F 29.2 °F 25.7 °F 67% 29.97 in 10.0 mi ESE 8.1 mph - N/A   Overcast
2:35 AM 35.6 °F 29.2 °F 25.7 °F 67% 29.97 in 10.0 mi ESE 8.1 mph - N/A   Overcast
2:54 AM 35.6 °F 28.0 °F 25.5 °F 67% 29.97 in 10.0 mi ESE 10.4 mph - N/A   Overcast
3:15 AM 35.6 °F 28.6 °F 25.7 °F 67% 29.98 in 10.0 mi SE 9.2 mph - N/A   Overcast
3:54 AM 35.6 °F 29.2 °F 25.7 °F 67% 29.99 in 10.0 mi ESE 8.1 mph - N/A   Overcast
4:15 AM 35.6 °F 29.2 °F 25.7 °F 67% 29.99 in 10.0 mi ESE 8.1 mph - N/A   Overcast
4:35 AM 35.6 °F 30.7 °F 26.2 °F 69% 29.99 in 10.0 mi ESE 5.8 mph - N/A   Overcast
4:55 AM 34.9 °F 30.8 °F 26.1 °F 70% 30.00 in 10.0 mi ESE 4.6 mph - N/A   Mostly Cloudy
5:15 AM 33.1 °F 27.7 °F 25.5 °F 74% 30.00 in 10.0 mi ESE 5.8 mph - N/A   Scattered Clouds
5:35 AM 30.9 °F 25.2 °F 24.3 °F 76% 30.01 in 10.0 mi East 5.8 mph - N/A   Clear
5:55 AM 30.9 °F 24.3 °F 25.0 °F 79% 30.02 in 10.0 mi East 6.9 mph - N/A   Clear
6:15 AM 28.6 °F 21.5 °F 23.2 °F 80% 30.02 in 10.0 mi East 6.9 mph - N/A   Clear
6:35 AM 28.4 °F 22.2 °F 23.5 °F 82% 30.03 in 10.0 mi East 5.8 mph - N/A   Clear
6:55 AM 29.5 °F 23.4 °F 24.4 °F 81% 30.03 in 10.0 mi East 5.8 mph - N/A   Clear
7:15 AM 30.2 °F 24.3 °F 25.0 °F 81% 30.04 in 10.0 mi East 5.8 mph - N/A   Clear
7:35 AM 31.1 °F 25.4 °F 25.9 °F 81% 30.06 in 10.0 mi East 5.8 mph - N/A   Mostly Cloudy
7:55 AM 33.1 °F 27.7 °F 28.0 °F 82% 30.06 in 10.0 mi East 5.8 mph - N/A   Overcast
8:15 AM 33.1 °F 26.1 °F 27.0 °F 78% 30.08 in 10.0 mi East 8.1 mph - N/A   Overcast
8:35 AM 34.3 °F 27.7 °F 27.3 °F 76% 30.08 in 10.0 mi East 8.1 mph - N/A   Overcast
8:55 AM 35.6 °F 29.2 °F 27.7 °F 73% 30.09 in 10.0 mi ESE 8.1 mph - N/A   Overcast
9:15 AM 35.6 °F 28.0 °F 26.2 °F 69% 30.10 in 10.0 mi ESE 10.4 mph 16.1 mph N/A   Overcast
9:35 AM 35.6 °F 28.0 °F 24.8 °F 65% 30.10 in 10.0 mi ESE 10.4 mph - N/A   Overcast
9:55 AM 35.6 °F 28.0 °F 24.1 °F 63% 30.09 in 10.0 mi ESE 10.4 mph - N/A   Overcast
10:14 AM 38.3 °F 31.9 °F 25.5 °F 60% 30.09 in 10.0 mi ESE 9.2 mph - N/A   Mostly Cloudy
10:35 AM 38.5 °F 31.6 °F 24.6 °F 58% 30.10 in 10.0 mi East 10.4 mph - N/A   Scattered Clouds
10:55 AM 39.2 °F 33.0 °F 24.4 °F 56% 30.10 in 10.0 mi ESE 9.2 mph - N/A   Clear
11:15 AM 40.5 °F 36.5 °F 24.8 °F 54% 30.10 in 10.0 mi SE 5.8 mph - N/A   Clear
11:35 AM 41.2 °F 37.3 °F 24.8 °F 52% 30.10 in 10.0 mi SSE 5.8 mph - N/A   Clear
11:54 AM 41.4 °F 36.8 °F 24.4 °F 51% 30.10 in 10.0 mi East 6.9 mph - N/A   Clear
12:15 PM 42.1 °F 37.7 °F 24.3 °F 49% 30.10 in 10.0 mi East 6.9 mph - N/A   Clear
12:35 PM 42.8 °F 41.1 °F 23.9 °F 47% 30.10 in 10.0 mi SSE 3.5 mph - N/A   Clear
12:55 PM 45.1 °F 43.7 °F 25.7 °F 47% 30.08 in 10.0 mi East 3.5 mph - N/A   Clear
1:15 PM 45.5 °F - 25.5 °F 46% 30.08 in 10.0 mi Calm Calm - N/A   Clear
1:35 PM 45.5 °F 44.2 °F 24.4 °F 44% 30.08 in 10.0 mi East 3.5 mph - N/A   Clear
1:55 PM 45.5 °F - 24.6 °F 44% 30.09 in 10.0 mi Calm Calm - N/A   Scattered Clouds
2:15 PM 45.5 °F 42.5 °F 26.8 °F 48% 30.08 in 10.0 mi WSW 5.8 mph - N/A   Mostly Cloudy
2:35 PM 46.2 °F 43.3 °F 26.8 °F 47% 30.09 in 10.0 mi WNW 5.8 mph - N/A   Scattered Clouds
2:55 PM 45.5 °F 41.8 °F 25.9 °F 46% 30.09 in 10.0 mi West 6.9 mph - N/A   Clear
3:15 PM 44.4 °F 41.2 °F 26.2 °F 49% 30.09 in 10.0 mi WNW 5.8 mph - N/A   Clear
3:35 PM 45.5 °F 43.2 °F 26.8 °F 48% 30.09 in 10.0 mi WNW 4.6 mph - N/A   Clear
3:55 PM 44.4 °F 41.2 °F 25.7 °F 48% 30.09 in 10.0 mi WNW 5.8 mph - N/A   Clear
4:15 PM 43.0 °F 39.5 °F 25.3 °F 50% 30.10 in 10.0 mi WNW 5.8 mph - N/A   Clear
4:39 PM 41.5 °F 38.6 °F 24.1 °F 50% 30.11 in 10.0 mi WNW 4.6 mph - N/A   Clear
4:55 PM 40.5 °F 37.3 °F 24.8 °F 54% 30.11 in 10.0 mi NW 4.6 mph - N/A   Clear
5:15 PM 39.2 °F 37.0 °F 25.2 °F 57% 30.11 in 10.0 mi WNW 3.5 mph - N/A   Clear
5:34 PM 38.3 °F - 25.7 °F 61% 30.11 in 10.0 mi Calm Calm - N/A   Clear
5:55 PM 36.7 °F - 26.8 °F 67% 30.11 in 10.0 mi Calm Calm - N/A   Clear
6:15 PM 35.6 °F - 26.8 °F 70% 30.12 in 10.0 mi Calm Calm - N/A   Clear
6:35 PM 33.1 °F - 26.1 °F 75% 30.13 in 10.0 mi Calm Calm - N/A   Clear
6:55 PM 33.1 °F - 27.5 °F 80% 30.13 in 7.0 mi Calm Calm - N/A   Clear
7:14 PM 32.2 °F - 26.4 °F 79% 30.14 in 10.0 mi Calm Calm - N/A   Clear
7:35 PM 29.7 °F - 25.0 °F 83% 30.14 in 10.0 mi Calm Calm - N/A   Scattered Clouds
7:55 PM 30.6 °F - 26.1 °F 83% 30.14 in 10.0 mi Calm Calm - N/A   Overcast
8:14 PM 32.4 °F - 28.0 °F 84% 30.14 in 10.0 mi Calm Calm - N/A   Overcast
8:35 PM 33.1 °F - 28.4 °F 83% 30.14 in 10.0 mi Calm Calm - N/A   Overcast
8:55 PM 33.1 °F - 28.4 °F 83% 30.14 in 10.0 mi Calm Calm - N/A   Overcast
9:15 PM 33.1 °F - 28.4 °F 83% 30.15 in 10.0 mi Calm Calm - N/A   Overcast
9:35 PM 33.1 °F - 28.4 °F 83% 30.15 in 10.0 mi Calm Calm - N/A   Overcast
9:55 PM 35.6 °F - 28.9 °F 77% 30.15 in 10.0 mi Calm Calm - N/A   Overcast
10:15 PM 35.6 °F - 28.8 °F 76% 30.15 in 10.0 mi Calm Calm - N/A   Overcast
10:35 PM 35.6 °F - 28.4 °F 75% 30.15 in 10.0 mi Calm Calm - N/A   Overcast
10:55 PM 35.6 °F - 29.3 °F 78% 30.15 in 10.0 mi Calm Calm - N/A   Overcast
11:15 PM 35.6 °F - 30.2 °F 81% 30.15 in 10.0 mi Calm Calm - N/A   Overcast
11:35 PM 35.6 °F - 30.2 °F 81% 30.15 in 10.0 mi Calm Calm - N/A   Overcast
11:55 PM 35.6 °F - 30.7 °F 82% 30.14 in 10.0 mi Calm Calm - N/A   Overcast